Location: Olda
(45.8833°N, 9.5500°E)
Time: 06:18:10
(UTC+00:00)

YAOGAN 1 - Pass Details

Date: 03 March 2021
Orbit: 618 x 620 km, 97.9° (Epoch: 10 April)

Event Time Altitude Azimuth Distance (km) Brightness Sun altitude
Rises 17:37:04 0° 152° (SSE) 2,885 5.7 -5.3°
Reaches altitude 10° 17:39:16 10° 147° (SSE) 1,984 4.9 -5.7°
Maximum altitude 17:43:27 52° 72° (ENE) 778 2.7 -6.4°
Drops below altitude 10° 17:47:41 10° 356° (N) 1,999 5.2 -7.1°
Sets 17:49:55 0° 352° (N) 2,910 6.1 -7.5°
